Location: Henham
(51.9333°N, 0.2500°E)
Time: 07:26:41
(UTC+00:00)

Daily predictions for brighter satellites

Satellite Brightness Start Highest point End
(mag) Time Altitude Azimuth Time Altitude Azimuth Time Altitude Azimuth
Unknown 3.7 17:15:05 10° W 17:19:14 76° N 17:23:24 10° E
PSLV R/B 4.1 17:15:26 10° NNE 17:19:37 80° WNW 17:23:47 10° SSW
SMAP 3.2 17:15:20 10° SSE 17:20:00 85° WSW 17:24:41 10° NNW
Unknown 3.7 17:16:44 10° W 17:20:53 76° N 17:25:03 10° E
CORIOLIS 4.2 17:15:47 10° SSE 17:21:08 84° ENE 17:26:33 10° NNW
Cosmos 2058 Rocket 3.2 17:17:06 10° S 17:21:19 51° E 17:25:34 10° NNE
Abrixas rocket 3.4 17:18:36 10° SW 17:21:19 29° SSE 17:24:04 10° E
Unknown 3.8 17:18:53 10° WNW 17:22:21 56° SSW 17:25:48 10° SE
Unknown 3.7 17:18:24 10° W 17:22:34 76° N 17:26:43 10° E
Cosmos 1300 4.5 17:21:15 10° ESE 17:23:03 13° E 17:24:51 10° NE
COBE Rocket 4.5 17:19:15 10° NNE 17:24:03 38° E 17:28:44 10° SSE
Unknown 3.7 17:20:06 10° W 17:24:16 76° N 17:28:25 10° E
Cosmos 2227 Rocket 4.4 17:24:38 10° NNW 17:26:24 11° N 17:28:10 10° N
Okean O Rocket 4.3 17:23:04 10° SSW 17:26:50 27° W 17:30:37 10° NW
NOAA 12 4.1 17:21:36 10° SSE 17:26:52 71° ENE 17:32:12 10° NNW
Envisat 3.1 17:22:10 10° SE 17:27:07 56° ENE 17:32:07 10° N
Unknown 3.7 17:23:25 10° W 17:27:35 75° N 17:31:44 10° E
Cosmos 1328 3.7 17:24:00 10° N 17:28:00 81° ENE 17:31:57 10° SSE
Unknown 3.7 17:25:08 10° W 17:29:18 75° N 17:33:27 10° E
Unknown 3.7 17:26:43 10° W 17:30:52 75° N 17:35:02 10° E
Cosmos 2297 Rocket 4.4 17:29:28 10° NNW 17:31:02 11° N 17:32:37 10° N
COSMO-SKYMED 1 3.4 17:27:16 10° NNE 17:31:05 29° E 17:34:52 10° SSE
Unknown 3.7 17:28:19 10° W 17:32:29 75° N 17:36:35 10° E
Cosmos 1356 3.4 17:29:09 10° S 17:32:33 63° E 17:35:59 10° NNE
Cosmos 1898 Rocket 4.3 17:28:02 10° NNW 17:32:45 32° NE 17:37:29 10° ESE
H-2A R/B 3.1 17:30:01 10° S 17:33:55 75° WSW 17:37:53 10° NNW
Cosmos 2082 Rocket 2.2 17:28:17 10° NNW 17:34:00 67° NE 17:39:40 10° SE
Unknown 3.7 17:30:04 10° W 17:34:14 75° N 17:38:16 11° E
Unknown 3.7 17:31:34 10° W 17:35:43 75° N 17:39:41 11° E
CZ-2D R/B 4.5 17:35:21 10° ESE 17:38:23 22° ENE 17:41:27 10° NNE
USA 238 DEB 4.2 17:32:17 10° S 17:38:25 39° ESE 17:44:45 10° NE
Cosmos 2058 4.0 17:34:58 10° NNE 17:38:27 24° ENE 17:41:55 10° ESE
USA 238 4.2 17:32:25 10° S 17:38:31 39° ESE 17:44:50 10° NE
Unknown 3.7 17:34:50 10° W 17:39:00 75° N 17:42:50 12° E
Cosmos 1844 Rocket 3.5 17:34:46 10° SW 17:40:16 52° NW 17:45:47 10° NNE
Unknown 3.7 17:36:32 10° W 17:40:41 75° N 17:44:27 12° E
Unknown 3.6 17:38:25 10° W 17:42:29 77° N 17:46:07 13° E
Unknown 3.7 17:38:23 10° W 17:42:33 75° N 17:46:14 13° E
Unknown 3.4 17:38:52 10° WNW 17:42:37 78° SSW 17:46:21 10° ESE
H-2A R/B 3.9 17:40:42 11° ENE 17:43:12 14° NE 17:45:55 10° NNE
Unknown 4.4 17:40:01 10° W 17:43:20 40° SSW 17:46:38 10° SE
Unknown 3.7 17:39:54 10° W 17:44:03 75° N 17:47:41 13° E
Cosmos 1076 Rocket 4.1 17:40:54 10° N 17:44:57 36° ENE 17:48:58 10° SE
Unknown 3.7 17:41:33 10° W 17:45:42 75° N 17:49:16 14° E
Unknown 3.7 17:44:53 10° W 17:49:02 75° N 17:52:27 15° E
Unknown 3.7 17:46:31 10° W 17:50:41 75° N 17:54:02 15° E
Unknown 3.7 17:48:10 10° W 17:52:20 75° N 17:55:37 16° E
Cosmos 1726 2.2 17:48:45 10° SSW 17:52:24 79° W 17:56:04 10° N
Okean-O 3.2 17:48:01 10° S 17:52:25 63° WSW 17:56:51 10° NNW
Cosmos 1939 Rocket 3.8 17:49:03 10° SE 17:52:31 28° ENE 17:56:05 10° N
Unknown 3.6 17:49:53 10° W 17:54:03 76° N 17:57:16 16° E
Unknown 3.6 17:51:05 10° W 17:55:11 77° N 17:58:19 17° E
ATLAS 5 CENTAUR R/B 3.1 17:52:11 10° W 17:56:20 33° NNW 18:01:04 10° NE
Cosmos 1703 4.1 17:53:22 10° NNW 17:57:14 56° W 18:01:04 10° S
Unknown 3.6 17:53:13 10° W 17:57:22 76° N 18:00:27 17° E
Unknown 3.6 17:54:06 10° W 17:58:16 76° N 18:01:18 18° E
Cosmos 1605 Rocket 4.0 17:52:46 10° N 17:59:00 90° W 18:05:07 10° S
Unknown 3.6 17:54:55 10° W 17:59:05 77° N 18:02:06 18° E
NOSS 3-2 (A) 3.8 17:54:45 10° S 18:00:12 42° ESE 18:06:20 10° NE
Cosmos 2151 4.2 17:57:06 10° NNE 18:00:31 22° ENE 18:02:29 17° ESE
Unknown 3.6 17:56:46 10° W 18:00:56 77° N 18:03:53 19° E
Okean 3 Rocket 4.5 17:58:08 10° N 18:02:05 28° ENE 18:05:52 11° SE
Unknown 3.6 17:59:54 10° W 18:04:03 77° N 18:06:52 20° E
Unknown 3.6 18:03:13 10° W 18:07:24 78° N 18:10:03 21° E
Unknown 3.6 18:04:50 10° W 18:09:00 78° N 18:11:36 22° E
Ariane Rocket 3.4 18:05:05 10° SE 18:09:51 42° ENE 18:14:40 10° N
Cosmos 1812 Rocket 3.7 18:05:53 10° S 18:10:11 51° E 18:14:32 10° NNE
Unknown 3.6 18:06:33 10° W 18:10:42 78° N 18:13:14 23° E
Meteor 2-10 4.3 18:06:12 10° SSW 18:11:13 69° WNW 18:16:17 10° N
Cosmos 1908 3.5 18:08:22 10° SSW 18:12:15 73° WNW 18:16:09 10° N
Unknown 3.6 18:08:08 10° W 18:12:18 79° N 18:14:46 24° E
HJ-1C 4.4 18:13:18 26° E 18:13:49 27° ENE 18:16:42 10° N
ASTEX 1 3.6 18:09:32 10° N 18:14:31 79° W 18:19:30 10° SSW
Cosmos 2173 Rocket 4.1 18:08:56 10° N 18:15:03 52° ENE 18:21:02 10° SSE
Cosmos 1727 Rocket 3.9 18:10:44 10° S 18:16:47 64° E 18:22:55 10° NNE
Cosmos 2278 Rocket 2.2 18:11:42 10° SSW 18:17:23 88° WNW 18:23:08 10° NNE
YAOGAN 6 2.8 18:14:25 10° S 18:18:03 73° WSW 18:21:40 10° NNW
Cosmos 990 Rocket 4.0 18:13:29 10° NNW 18:18:39 58° ENE 18:23:47 10° SE
Unknown 3.6 18:14:51 10° W 18:19:01 80° N 18:21:13 27° E
Lacrosse 5 3.2 18:14:29 10° WNW 18:19:07 37° SW 18:23:45 10° SSE
SKYMED 2 3.5 18:14:59 10° NNE 18:19:22 80° ESE 18:23:43 10° SSW
Unknown 3.6 18:16:32 10° W 18:20:42 81° N 18:22:50 28° E
YAOGAN 1 2.5 18:16:54 10° SSE 18:21:14 88° WSW 18:25:36 10° NNW
Cosmos 1937 Rocket 3.7 18:16:29 10° NNW 18:21:30 49° ENE 18:25:12 17° SE
Unknown 3.6 18:18:11 10° W 18:22:22 81° NNE 18:24:25 29° E
CSL-04 Rocket 3.7 18:17:46 10° SSE 18:23:17 85° WSW 18:28:47 10° NNW
Cosmos 2297 4.1 18:18:31 10° S 18:23:48 40° ESE 18:29:08 10° NE
Unknown 3.6 18:19:50 10° W 18:23:59 82° N 18:25:59 30° E
Unknown 3.6 18:21:31 10° WNW 18:25:41 82° NNE 18:27:36 31° E
Unknown 3.6 18:22:13 10° WNW 18:26:00 64° SSW 18:27:57 27° SE
BREEZE-M DEB (TANK) 3.7 18:17:36 10° SW 18:26:31 35° SSE 18:28:17 25° ESE
NOSS 3-2 (C) 3.8 18:21:51 10° S 18:27:19 43° ESE 18:31:44 18° ENE
CZ-4 R/B 2.1 18:23:15 10° S 18:27:25 60° WSW 18:31:39 10° NNW
Cosmos 1825 4.4 18:25:24 10° NNE 18:25:54 12° NNE 18:25:54 12° NNE
ARGOS 4.2 18:27:50 24° ENE 18:28:58 26° ENE 18:33:21 10° N
Unknown 3.5 18:24:49 10° WNW 18:28:59 83° N 18:30:47 33° E
Cosmos 1802 Rocket 4.1 18:23:16 10° N 18:29:37 56° ENE 18:35:52 10° SSE
Starlink (trailer) 3.5 18:26:29 10° WNW 18:30:39 84° N 18:32:23 34° E
Unknown 3.5 18:28:10 10° WNW 18:32:21 85° NNE 18:34:00 35° E
Unknown 3.5 18:29:53 10° WNW 18:34:03 85° NNE 18:35:38 37° E
USA 116 3.2 18:31:20 10° NNE 18:34:35 72° ESE 18:38:06 10° S
ATLAS CENTAUR R/B 2.7 18:31:01 10° NNW 18:34:59 27° NNE 18:36:02 25° NE
SJ-6B 4.4 18:36:45 19° NE 18:36:45 19° NE 18:38:30 10° N
Cosmos 1892 3.0 18:33:42 10° N 18:37:21 42° ENE 18:37:37 41° E
Unknown 3.5 18:34:50 10° WNW 18:39:00 88° NNE 18:40:24 41° ESE
Cosmos 1725 Rocket 4.3 18:33:30 10° N 18:39:33 46° ENE 18:43:50 19° SE
Unknown 3.5 18:36:28 10° WNW 18:40:38 88° NNE 18:41:58 42° ESE
Cosmos-2242 3.4 18:37:20 10° SSE 18:41:24 40° E 18:45:27 10° NNE
Unknown 3.5 18:38:08 10° WNW 18:42:18 89° N 18:43:34 44° ESE
Cosmos 1833 Rocket 4.5 18:37:25 10° NW 18:42:22 33° WSW 18:47:18 10° SSW
Cosmos 44 3.4 18:39:01 10° SSW 18:43:45 51° SE 18:45:15 36° ENE
Unknown 3.5 18:39:44 10° WNW 18:43:56 90° NW 18:45:10 45° ESE
SL-27 R/B 2.8 18:42:19 10° NNW 18:45:03 43° NNE 18:45:03 43° NNE
Unknown 3.5 18:41:27 10° WNW 18:45:37 90° S 18:46:45 47° ESE
NOAA 11 4.1 18:40:18 10° SSE 18:45:45 89° WSW 18:51:14 10° NNW
Cosmos 2100 Rocket 3.9 18:39:42 10° N 18:45:56 86° E 18:52:06 10° S
Cosmos 1763 Rocket 3.9 18:41:29 10° S 18:46:21 38° ESE 18:47:27 34° ENE
Unknown 3.5 18:43:13 10° WNW 18:47:23 88° S 18:48:27 49° ESE
CZ-2C R/B 4.2 18:48:13 27° ENE 18:48:28 28° ENE 18:53:11 10° N
ATLAS 3B R/B 2.9 18:43:31 10° S 18:49:47 43° ESE 18:52:29 30° ENE
Unknown 3.5 18:46:28 10° WNW 18:50:38 87° SSW 18:51:34 53° ESE
Unknown 3.5 18:46:32 10° WNW 18:50:42 86° SSW 18:51:38 53° ESE
BREEZE-M DEB (TANK) 3.5 18:48:28 10° SW 18:51:06 28° S 18:51:06 28° S
Unknown 3.5 18:48:07 10° WNW 18:52:17 86° SSW 18:53:10 55° ESE
Cosmos 2298 Rocket 4.3 18:48:28 10° NNW 18:53:36 46° ENE 18:54:40 40° E
SJ 16-02 1.2 18:50:20 10° NNW 18:54:45 82° ENE 18:56:27 37° SSE
Unknown 3.9 18:51:25 10° WNW 18:55:15 53° SSW 18:56:04 43° SSE
CENTAUR R/B 2.7 18:49:35 10° SSW 18:55:22 48° ESE 18:58:23 30° ENE
Unknown 3.5 18:51:22 10° WNW 18:55:32 86° SSW 18:56:16 59° ESE
Abrixas rocket 3.0 18:53:56 10° WSW 18:56:26 39° SSW 18:56:26 39° SSW
Cosmos 1300 3.0 18:54:24 10° SSW 18:58:11 66° WNW 19:02:01 10° N
Unknown 3.5 18:54:46 10° WNW 18:58:56 83° SSW 18:59:33 63° ESE
Cosmos 2016 Rocket 3.9 18:54:09 10° N 19:00:28 74° ENE 19:06:49 10° SSE
Unknown 3.5 18:56:26 10° WNW 19:00:35 82° SSW 19:01:07 66° SE
Unknown 3.5 18:58:06 10° WNW 19:02:15 81° SSW 19:02:44 68° SE
Unknown 3.5 18:59:47 10° WNW 19:03:57 80° SSW 19:04:22 69° SE
Cosmos 1408 4.4 19:02:49 10° N 19:04:20 22° NNE 19:04:20 22° NNE
SPOT 3 Rocket 3.7 19:05:58 49° E 19:06:37 52° ENE 19:11:41 10° N
Unknown 3.5 19:03:06 10° WNW 19:07:16 77° SSW 19:07:32 73° SSE
COSMO-SKYMED 1 4.0 19:03:17 10° N 19:07:20 38° WNW 19:11:21 10° SW
Meteor 2-3 Rocket 4.3 19:02:41 10° N 19:07:59 39° ENE 19:07:59 39° ENE
Unknown 3.5 19:04:49 10° WNW 19:08:59 76° SSW 19:09:12 73° SSE
SL-08 R/B 4.3 19:03:51 10° N 19:09:59 74° ENE 19:13:56 23° SSE
Unknown 3.5 19:06:24 10° WNW 19:10:33 76° SSW 19:10:42 74° S
Unknown 3.5 19:08:00 10° WNW 19:12:09 75° SSW 19:12:14 75° S
CZ-2D R/B 4.5 19:08:51 10° S 19:12:32 42° W 19:16:16 10° NNW
Cosmos 2227 Rocket 4.2 19:10:16 10° N 19:13:11 14° NNE 19:14:09 14° NNE
Unknown 3.6 19:09:45 10° WNW 19:13:54 73° SSW 19:13:56 73° SSW
Cosmos 1898 Rocket 4.2 19:09:58 10° NNW 19:15:07 53° WSW 19:19:54 12° S
Unknown 3.6 19:11:14 10° WNW 19:15:21 75° SSW 19:15:21 75° SSW
Cosmos 2058 4.2 19:11:33 10° NNW 19:15:33 41° W 19:19:30 10° SSW
Cosmos 2082 Rocket 4.3 19:13:01 10° NW 19:17:39 26° WSW 19:22:15 10° SSW
Cosmos 2297 Rocket 4.1 19:14:40 10° NNW 19:17:47 15° NNE 19:18:26 14° NNE
Unknown 3.7 19:14:31 10° WNW 19:18:29 72° SW 19:18:29 72° SW
Unknown 3.7 19:16:12 10° WNW 19:20:06 70° SW 19:20:06 70° SW
MOS 1 4.3 19:17:41 22° SSE 19:21:29 82° WSW 19:27:11 10° NNW
H-2A R/B 2.1 19:21:20 60° E 19:21:35 61° ENE 19:26:58 10° N
Unknown 4.0 19:17:41 10° WNW 19:21:25 56° SW 19:21:25 56° SW
Unknown 3.8 19:18:03 10° WNW 19:21:54 65° SW 19:21:54 65° SW
Cosmos 1766 Rocket 3.7 19:18:59 10° NNW 19:23:18 71° W 19:24:13 53° SSW
Unknown 3.9 19:19:34 10° WNW 19:23:21 65° WSW 19:23:21 65° WSW
Unknown 3.9 19:21:12 10° WNW 19:24:55 63° WSW 19:24:55 63° WSW
Cosmos 1943 Rocket 4.3 19:20:22 10° S 19:20:37 11° S 19:20:37 11° S
Cosmos 1939 Rocket 4.5 19:23:40 10° SSW 19:27:22 35° W 19:31:10 10° NNW
Unknown 4.1 19:24:32 10° WNW 19:28:07 58° WSW 19:28:07 58° WSW
USA 238 DEB 4.0 19:22:21 10° WSW 19:29:05 67° NW 19:33:35 24° NE
USA 238 3.9 19:22:27 10° WSW 19:29:11 67° NW 19:33:39 24° NE
Unknown 4.1 19:26:11 10° WNW 19:29:41 56° WSW 19:29:41 56° WSW
Unknown 4.2 19:27:50 10° WNW 19:31:16 54° WSW 19:31:16 54° WSW
Cosmos 1408 Rocket 3.9 19:28:33 10° NNW 19:32:02 57° NNW 19:32:02 57° NNW
Unknown 4.3 19:29:32 10° WNW 19:32:55 52° WSW 19:32:55 52° WSW
Unknown 4.4 19:30:33 10° WNW 19:33:48 48° WSW 19:33:48 48° WSW
Unknown 4.4 19:32:52 10° WNW 19:36:06 48° WSW 19:36:06 48° WSW
Unknown 4.5 19:33:45 10° WNW 19:36:57 47° WSW 19:36:57 47° WSW
Cosmos 2151 3.9 19:33:55 10° NNW 19:38:05 48° W 19:39:06 39° SW
Cosmos 1125 Rocket 4.1 19:34:10 10° NNW 19:38:14 44° NNE 19:38:14 44° NNE
Timation 2 Rocket 4.3 19:34:18 10° NNW 19:39:40 45° NE 19:39:40 45° NE
ATLAS 5 CENTAUR R/B 3.6 19:38:25 10° NW 19:42:26 24° N 19:43:20 23° NNE
Resurs 01 Rocket 3.6 19:53:26 21° N 19:53:26 21° N 19:54:58 10° N
NOSS 3-2 (A) 4.0 19:44:55 10° WSW 19:50:52 59° NW 19:53:56 32° NNE
ADEOS Rocket 3.3 19:49:52 10° NNE 19:57:35 76° ESE 19:59:59 46° S
Cosmos 1238 Rocket 3.9 19:51:51 10° N 19:58:18 83° NNE 19:58:18 83° NNE
Cosmos 2278 Rocket 4.2 19:57:42 10° W 20:02:17 25° NW 20:06:55 10° NNE
Cosmos 2150 Rocket 4.5 20:00:13 10° NNW 20:05:12 60° W 20:05:12 60° W
ARGOS 3.5 20:09:22 63° WNW 20:09:22 63° WNW 20:14:15 10° NNW
ATLAS CENTAUR R/B 3.4 20:09:58 10° NW 20:12:14 29° NW 20:12:14 29° NW
NOSS 3-2 (C) 3.9 20:12:05 10° WSW 20:18:03 59° NW 20:19:12 52° N
Cosmos 2233 Rocket 4.4 20:15:13 10° NNW 20:21:25 60° W 20:21:58 58° WSW
CZ-2C R/B 4.0 20:29:17 51° NW 20:29:17 51° NW 20:33:38 10° NNW
SJ 16-02 4.1 20:30:28 10° WNW 20:32:41 14° W 20:33:29 13° WSW
ATLAS 3B R/B 3.0 20:33:43 10° WSW 20:39:46 58° WNW 20:39:46 58° WNW
CENTAUR R/B 3.1 20:39:45 10° WSW 20:45:37 56° NW 20:45:37 56° NW
Cosmos 2227 Rocket 4.2 20:53:50 10° NNW 20:55:57 21° N 20:55:57 21° N
H-2A R/B 4.0 21:01:58 25° W 21:01:58 25° W 21:05:54 10° NW
Cosmos 2297 Rocket 4.2 20:58:12 10° NNW 21:00:14 21° N 21:00:14 21° N
